Time,TemperatureF,DewpointF,PressureIn,WindDirection,WindDirectionDegrees,WindSpeedMPH,WindSpeedGustMPH,Humidity,HourlyPrecipIn,Conditions,Clouds,dailyrainin,SoftwareType,DateUTC
2013-11-05 01:22:00,38.0,-99.9,30.65,NNE,25,6.0,-999.0,-999,-99.99,,,-99.99,,2013-11-05 06:22:00,
2013-11-05 01:32:00,38.0,-99.9,30.65,NNE,25,6.0,-999.0,-999,-99.99,,,-99.99,,2013-11-05 06:32:00,
2013-11-05 01:42:00,38.0,-99.9,30.65,NNE,25,6.0,-999.0,-999,-99.99,,,-99.99,,2013-11-05 06:42:00,
2013-11-05 01:52:00,38.0,-99.9,30.66,NNE,13,8.0,-999.0,-999,-99.99,,,-99.99,,2013-11-05 06:52:00,
2013-11-05 02:02:00,38.0,-99.9,30.66,NNE,13,8.0,-999.0,-999,-99.99,,,-99.99,,2013-11-05 07:02:00,
2013-11-05 02:11:00,38.0,-99.9,30.66,NNE,13,8.0,-999.0,-999,-99.99,,,-99.99,,2013-11-05 07:11:00,
2013-11-05 02:22:00,37.0,-99.9,30.65,NNE,21,7.0,-999.0,-999,-99.99,,,-99.99,,2013-11-05 07:22:00,
2013-11-05 02:32:00,37.0,-99.9,30.65,NNE,21,7.0,-999.0,-999,-99.99,,,-99.99,,2013-11-05 07:32:00,
2013-11-05 02:52:00,38.0,-99.9,30.65,NNE,23,9.0,-999.0,-999,-99.99,,,-99.99,,2013-11-05 07:52:00,
2013-11-05 03:02:00,38.0,-99.9,30.65,NNE,23,9.0,-999.0,-999,-99.99,,,-99.99,,2013-11-05 08:02:00,
2013-11-05 03:22:00,38.0,-99.9,30.66,North,3,7.0,-999.0,-999,-99.99,,,-99.99,,2013-11-05 08:22:00,
2013-11-05 03:32:00,38.0,-99.9,30.66,North,3,7.0,-999.0,-999,-99.99,,,-99.99,,2013-11-05 08:32:00,
2013-11-05 03:52:00,38.0,-99.9,30.65,NNE,33,9.0,-999.0,-999,-99.99,,,-99.99,,2013-11-05 08:52:00,
2013-11-05 04:03:00,38.0,-99.9,30.65,NNE,33,9.0,-999.0,-999,-99.99,,,-99.99,,2013-11-05 09:03:00,
2013-11-05 04:12:00,38.0,-99.9,30.65,NNE,33,9.0,-999.0,-999,-99.99,,,-99.99,,2013-11-05 09:12:00,
2013-11-05 04:22:00,37.0,-99.9,30.64,NE,51,6.0,-999.0,-999,-99.99,,,-99.99,,2013-11-05 09:22:00,
2013-11-05 04:33:00,37.0,-99.9,30.64,NE,51,6.0,-999.0,-999,-99.99,,,-99.99,,2013-11-05 09:33:00,
2013-11-05 04:43:00,37.0,-99.9,30.64,NE,51,6.0,-999.0,-999,-99.99,,,-99.99,,2013-11-05 09:43:00,
2013-11-05 04:53:00,36.0,-99.9,30.64,NNE,21,9.0,-999.0,-999,-99.99,,,-99.99,,2013-11-05 09:53:00,
2013-11-05 05:03:00,36.0,-99.9,30.64,NNE,21,9.0,-999.0,-999,-99.99,,,-99.99,,2013-11-05 10:03:00,
2013-11-05 05:23:00,36.0,-99.9,30.65,NE,34,9.0,-999.0,-999,-99.99,,,-99.99,,2013-11-05 10:23:00,
2013-11-05 05:33:00,36.0,-99.9,30.65,NE,34,9.0,-999.0,-999,-99.99,,,-99.99,,2013-11-05 10:33:00,
2013-11-05 05:53:00,36.0,-99.9,30.65,NNE,31,8.0,-999.0,-999,-99.99,,,-99.99,,2013-11-05 10:53:00,
2013-11-05 06:02:00,36.0,-99.9,30.65,NNE,31,8.0,-999.0,-999,-99.99,,,-99.99,,2013-11-05 11:02:00,
2013-11-05 06:22:00,36.0,-99.9,30.65,NE,45,7.0,-999.0,-999,-99.99,,,-99.99,,2013-11-05 11:22:00,
2013-11-05 06:33:00,36.0,-99.9,30.65,NE,45,7.0,-999.0,-999,-99.99,,,-99.99,,2013-11-05 11:33:00,
2013-11-05 06:42:00,36.0,-99.9,30.65,NE,45,7.0,-999.0,-999,-99.99,,,-99.99,,2013-11-05 11:42:00,
2013-11-05 06:52:00,36.0,-99.9,30.65,NE,46,9.0,-999.0,-999,-99.99,,,-99.99,,2013-11-05 11:52:00,
2013-11-05 07:02:00,36.0,-99.9,30.65,NE,46,9.0,-999.0,-999,-99.99,,,-99.99,,2013-11-05 12:02:00,
2013-11-05 07:22:00,36.0,-99.9,30.66,NNE,23,8.0,-999.0,-999,-99.99,,,-99.99,,2013-11-05 12:22:00,
2013-11-05 07:32:00,36.0,-99.9,30.66,NNE,23,8.0,-999.0,-999,-99.99,,,-99.99,,2013-11-05 12:32:00,
2013-11-05 07:52:00,38.0,-99.9,30.66,NNE,18,7.0,-999.0,-999,-99.99,,,-99.99,,2013-11-05 12:52:00,
2013-11-05 08:01:00,38.0,-99.9,30.66,NNE,18,7.0,-999.0,-999,-99.99,,,-99.99,,2013-11-05 13:01:00,
2013-11-05 08:22:00,39.0,-99.9,30.66,NNE,24,8.0,-999.0,-999,-99.99,,,-99.99,,2013-11-05 13:22:00,
2013-11-05 08:32:00,39.0,-99.9,30.66,NNE,24,8.0,-999.0,-999,-99.99,,,-99.99,,2013-11-05 13:32:00,
2013-11-05 08:42:00,39.0,-99.9,30.66,NNE,24,8.0,-999.0,-999,-99.99,,,-99.99,,2013-11-05 13:42:00,
2013-11-05 08:52:00,41.0,-99.9,30.66,NNE,26,9.0,-999.0,-999,-99.99,,,-99.99,,2013-11-05 13:52:00,
2013-11-05 09:02:00,41.0,-99.9,30.66,NNE,26,9.0,-999.0,-999,-99.99,,,-99.99,,2013-11-05 14:02:00,
2013-11-05 09:12:00,41.0,-99.9,30.66,NNE,26,9.0,-999.0,-999,-99.99,,,-99.99,,2013-11-05 14:12:00,
2013-11-05 09:22:00,43.0,-99.9,30.67,NNE,25,7.0,-999.0,-999,-99.99,,,-99.99,,2013-11-05 14:22:00,
2013-11-05 09:32:00,43.0,-99.9,30.67,NNE,25,7.0,-999.0,-999,-99.99,,,-99.99,,2013-11-05 14:32:00,
2013-11-05 09:52:00,45.0,-99.9,30.67,NNE,14,7.0,-999.0,-999,-99.99,,,-99.99,,2013-11-05 14:52:00,
2013-11-05 10:02:00,45.0,-99.9,30.67,NNE,14,7.0,-999.0,-999,-99.99,,,-99.99,,2013-11-05 15:02:00,
2013-11-05 10:22:00,46.0,-99.9,30.66,North,351,4.0,-999.0,-999,-99.99,,,-99.99,,2013-11-05 15:22:00,
2013-11-05 10:33:00,46.0,-99.9,30.66,North,351,4.0,-999.0,-999,-99.99,,,-99.99,,2013-11-05 15:33:00,
2013-11-05 10:43:00,46.0,-99.9,30.66,North,351,4.0,-999.0,-999,-99.99,,,-99.99,,2013-11-05 15:43:00,
2013-11-05 10:53:00,49.0,-99.9,30.65,SSE,151,3.0,-999.0,-999,-99.99,,,-99.99,,2013-11-05 15:53:00,
2013-11-05 11:03:00,49.0,-99.9,30.65,SSE,151,3.0,-999.0,-999,-99.99,,,-99.99,,2013-11-05 16:03:00,
2013-11-05 11:13:00,49.0,-99.9,30.65,SSE,151,3.0,-999.0,-999,-99.99,,,-99.99,,2013-11-05 16:13:00,
2013-11-05 11:23:00,50.0,-99.9,30.64,SSE,164,4.0,-999.0,-999,-99.99,,,-99.99,,2013-11-05 16:23:00,
2013-11-05 11:33:00,50.0,-99.9,30.64,SSE,164,4.0,-999.0,-999,-99.99,,,-99.99,,2013-11-05 16:33:00,
2013-11-05 11:53:00,48.0,-99.9,30.63,South,191,7.0,-999.0,-999,-99.99,,,-99.99,,2013-11-05 16:53:00,
2013-11-05 12:02:00,48.0,-99.9,30.63,South,191,7.0,-999.0,-999,-99.99,,,-99.99,,2013-11-05 17:02:00,
2013-11-05 12:22:00,48.0,-99.9,30.61,South,190,7.0,-999.0,-999,-99.99,,,-99.99,,2013-11-05 17:22:00,
2013-11-05 12:32:00,48.0,-99.9,30.61,South,190,7.0,-999.0,-999,-99.99,,,-99.99,,2013-11-05 17:32:00,
2013-11-05 12:52:00,48.0,-99.9,30.61,SSW,195,4.0,-999.0,-999,-99.99,,,-99.99,,2013-11-05 17:52:00,
2013-11-05 13:02:00,48.0,-99.9,30.61,SSW,195,4.0,-999.0,-999,-99.99,,,-99.99,,2013-11-05 18:02:00,
2013-11-05 13:12:00,48.0,-99.9,30.61,SSW,195,4.0,-999.0,-999,-99.99,,,-99.99,,2013-11-05 18:12:00,
2013-11-05 13:23:00,49.0,-99.9,30.60,South,176,6.0,-999.0,-999,-99.99,,,-99.99,,2013-11-05 18:23:00,
2013-11-05 13:33:00,49.0,-99.9,30.60,South,176,6.0,-999.0,-999,-99.99,,,-99.99,,2013-11-05 18:33:00,
2013-11-05 13:42:00,49.0,-99.9,30.60,South,176,6.0,-999.0,-999,-99.99,,,-99.99,,2013-11-05 18:42:00,
2013-11-05 13:52:00,49.0,-99.9,30.59,SSW,194,9.0,-999.0,-999,-99.99,,,-99.99,,2013-11-05 18:52:00,
2013-11-05 14:02:00,49.0,-99.9,30.59,SSW,194,9.0,-999.0,-999,-99.99,,,-99.99,,2013-11-05 19:02:00,
2013-11-05 14:22:00,48.0,-99.9,30.58,SSW,210,9.0,-999.0,-999,-99.99,,,-99.99,,2013-11-05 19:22:00,
2013-11-05 14:32:00,48.0,-99.9,30.58,SSW,210,9.0,-999.0,-999,-99.99,,,-99.99,,2013-11-05 19:32:00,
2013-11-05 14:52:00,49.0,-99.9,30.57,SW,214,6.0,-999.0,-999,-99.99,,,-99.99,,2013-11-05 19:52:00,
2013-11-05 15:02:00,49.0,-99.9,30.57,SW,214,6.0,-999.0,-999,-99.99,,,-99.99,,2013-11-05 20:02:00,
2013-11-05 15:22:00,48.0,-99.9,30.57,South,191,6.0,-999.0,-999,-99.99,,,-99.99,,2013-11-05 20:22:00,
2013-11-05 15:32:00,48.0,-99.9,30.57,South,191,6.0,-999.0,-999,-99.99,,,-99.99,,2013-11-05 20:32:00,
2013-11-05 15:43:00,48.0,-99.9,30.57,South,191,6.0,-999.0,-999,-99.99,,,-99.99,,2013-11-05 20:43:00,
2013-11-05 15:53:00,49.0,-99.9,30.56,SW,215,6.0,-999.0,-999,-99.99,,,-99.99,,2013-11-05 20:53:00,
2013-11-05 16:02:00,49.0,-99.9,30.56,SW,215,6.0,-999.0,-999,-99.99,,,-99.99,,2013-11-05 21:02:00,
2013-11-05 16:22:00,49.0,-99.9,30.56,SW,226,7.0,-999.0,-999,-99.99,,,-99.99,,2013-11-05 21:22:00,
2013-11-05 16:33:00,49.0,-99.9,30.56,SW,226,7.0,-999.0,-999,-99.99,,,-99.99,,2013-11-05 21:33:00,
2013-11-05 16:54:00,48.0,-99.9,30.55,SW,233,7.0,-999.0,-999,-99.99,,,-99.99,,2013-11-05 21:54:00,
2013-11-05 17:04:00,48.0,-99.9,30.55,SW,233,7.0,-999.0,-999,-99.99,,,-99.99,,2013-11-05 22:04:00,
2013-11-05 17:23:00,48.0,-99.9,30.55,WSW,248,7.0,-999.0,-999,-99.99,,,-99.99,,2013-11-05 22:23:00,
2013-11-05 17:34:00,48.0,-99.9,30.55,WSW,248,7.0,-999.0,-999,-99.99,,,-99.99,,2013-11-05 22:34:00,
2013-11-05 17:44:00,48.0,-99.9,30.55,WSW,248,7.0,-999.0,-999,-99.99,,,-99.99,,2013-11-05 22:44:00,
2013-11-05 17:53:00,49.0,-99.9,30.54,SW,225,7.0,-999.0,-999,-99.99,,,-99.99,,2013-11-05 22:53:00,
2013-11-05 18:03:00,49.0,-99.9,30.54,SW,225,7.0,-999.0,-999,-99.99,,,-99.99,,2013-11-05 23:03:00,
2013-11-05 18:12:00,49.0,-99.9,30.54,SW,225,7.0,-999.0,-999,-99.99,,,-99.99,,2013-11-05 23:12:00,
2013-11-05 19:52:00,47.0,-99.9,30.55,West,275,6.0,-999.0,-999,-99.99,,,-99.99,,2013-11-06 00:52:00,
2013-11-05 20:02:00,47.0,-99.9,30.55,West,275,6.0,-999.0,-999,-99.99,,,-99.99,,2013-11-06 01:02:00,
2013-11-05 21:23:00,45.0,-99.9,30.54,ESE,121,1.0,-999.0,-999,-99.99,,,-99.99,,2013-11-06 02:23:00,
2013-11-05 21:32:00,45.0,-99.9,30.54,ESE,121,1.0,-999.0,-999,-99.99,,,-99.99,,2013-11-06 02:32:00,
2013-11-05 21:52:00,46.0,-99.9,30.53,NE,40,2.0,-999.0,-999,-99.99,,,-99.99,,2013-11-06 02:52:00,
2013-11-05 22:03:00,46.0,-99.9,30.53,NE,40,2.0,-999.0,-999,-99.99,,,-99.99,,2013-11-06 03:03:00,